TimeHST,TemperatureF,Dew PointF,Humidity,Sea Level PressureIn,VisibilityMPH,Wind Direction,Wind SpeedMPH,Gust SpeedMPH,PrecipitationIn,Events,Conditions,WindDirDegrees,DateUTC
12:56 AM,49.6,45.0,84,30.33,12.0,NNE,2.3,-,N/A,,Clear,20,2013-09-17 10:56:00
1:56 AM,51.1,48.4,90,30.31,10.0,North,6.9,-,N/A,,Clear,350,2013-09-17 11:56:00
2:56 AM,48.6,42.4,79,30.29,12.0,ESE,2.3,-,N/A,,Clear,120,2013-09-17 12:56:00
3:56 AM,48.9,42.6,79,30.27,12.0,SSE,4.6,-,N/A,,Clear,150,2013-09-17 13:56:00
4:56 AM,48.4,39.4,71,30.27,12.0,SE,4.6,-,N/A,,Clear,140,2013-09-17 14:56:00
5:56 AM,52.2,41.7,68,30.28,7.0,North,4.6,-,N/A,,Clear,10,2013-09-17 15:56:00
6:56 AM,54.7,45.3,71,30.29,11.0,ESE,6.9,-,N/A,,Partly Cloudy,110,2013-09-17 16:56:00
7:56 AM,60.4,50.7,70,30.31,12.0,WSW,5.8,-,N/A,,Clear,250,2013-09-17 17:56:00
8:56 AM,61.5,52.2,71,30.32,12.0,SSE,10.4,23.0,N/A,,Clear,160,2013-09-17 18:56:00
9:15 AM,62.6,51.8,68,30.33,12.0,SE,13.8,27.6,N/A,,Partly Cloudy,130,2013-09-17 19:15:00
9:16 AM,62.6,51.8,68,30.33,12.0,ESE,12.7,27.6,N/A,,Partly Cloudy,120,2013-09-17 19:16:00
9:18 AM,64.4,51.8,64,30.33,12.0,South,16.1,27.6,N/A,,Clear,170,2013-09-17 19:18:00
9:20 AM,64.4,51.8,64,30.33,12.0,South,11.5,24.2,N/A,,Clear,190,2013-09-17 19:20:00
9:56 AM,65.3,50.7,59,30.34,12.0,SSE,10.4,25.3,N/A,,Clear,150,2013-09-17 19:56:00
10:12 AM,62.6,51.8,68,30.33,12.0,SE,15.0,29.9,N/A,,Clear,130,2013-09-17 20:12:00
10:16 AM,64.4,51.8,64,30.33,12.0,South,20.7,31.1,N/A,,Clear,170,2013-09-17 20:16:00
10:17 AM,64.4,53.6,68,30.34,12.0,South,17.3,31.1,N/A,,Clear,180,2013-09-17 20:17:00
10:23 AM,64.4,51.8,64,30.33,12.0,SSE,18.4,31.1,N/A,,Clear,150,2013-09-17 20:23:00
10:47 AM,66.2,51.8,60,30.32,12.0,SSE,16.1,29.9,N/A,,Partly Cloudy,160,2013-09-17 20:47:00
10:50 AM,68.0,51.8,56,30.31,12.0,SE,19.6,29.9,N/A,,Partly Cloudy,140,2013-09-17 20:50:00
10:56 AM,66.6,50.7,57,30.32,11.0,SE,10.4,29.9,N/A,,Partly Cloudy,130,2013-09-17 20:56:00
11:08 AM,66.2,53.6,64,30.32,9.0,South,18.4,35.7,N/A,,Partly Cloudy,180,2013-09-17 21:08:00
11:20 AM,64.4,51.8,64,30.32,12.0,South,13.8,35.7,N/A,,Clear,190,2013-09-17 21:20:00
11:22 AM,64.4,51.8,64,30.31,12.0,SSE,15.0,35.7,N/A,,Clear,150,2013-09-17 21:22:00
11:23 AM,66.2,51.8,60,30.31,12.0,SE,17.3,35.7,N/A,,Clear,130,2013-09-17 21:23:00
11:26 AM,68.0,51.8,56,30.32,12.0,South,16.1,32.2,N/A,,Partly Cloudy,180,2013-09-17 21:26:00
11:27 AM,68.0,51.8,56,30.32,12.0,South,16.1,32.2,N/A,,Partly Cloudy,180,2013-09-17 21:27:00
11:41 AM,66.2,50.0,56,30.32,12.0,SSW,13.8,29.9,N/A,,Partly Cloudy,200,2013-09-17 21:41:00
11:42 AM,66.2,51.8,60,30.31,12.0,SSE,15.0,29.9,N/A,,Partly Cloudy,160,2013-09-17 21:42:00
11:56 AM,67.5,50.2,54,30.32,12.0,South,11.5,33.4,N/A,,Scattered Clouds,170,2013-09-17 21:56:00
11:57 AM,66.2,51.8,60,30.31,12.0,SSW,18.4,36.8,N/A,,Scattered Clouds,210,2013-09-17 21:57:00
12:07 PM,68.0,50.0,52,30.31,12.0,SSW,19.6,29.9,N/A,,Scattered Clouds,200,2013-09-17 22:07:00
12:09 PM,69.8,50.0,49,30.30,12.0,SSE,19.6,29.9,N/A,,Scattered Clouds,150,2013-09-17 22:09:00
12:14 PM,69.8,50.0,49,30.30,12.0,SE,21.9,31.1,N/A,,Partly Cloudy,140,2013-09-17 22:14:00
12:15 PM,69.8,50.0,49,30.30,12.0,SE,21.9,31.1,N/A,,Partly Cloudy,140,2013-09-17 22:15:00
12:25 PM,68.0,50.0,52,30.30,12.0,SE,20.7,35.7,N/A,,Partly Cloudy,130,2013-09-17 22:25:00
12:27 PM,68.0,50.0,52,30.31,12.0,South,18.4,35.7,N/A,,Partly Cloudy,180,2013-09-17 22:27:00
12:37 PM,68.0,50.0,52,30.31,12.0,South,15.0,28.8,N/A,,Partly Cloudy,180,2013-09-17 22:37:00
12:39 PM,69.8,50.0,49,30.30,12.0,SE,18.4,28.8,N/A,,Partly Cloudy,130,2013-09-17 22:39:00
12:57 PM,68.4,49.1,50,30.30,12.0,South,13.8,31.1,N/A,,Scattered Clouds,180,2013-09-17 22:57:00
1:24 PM,71.6,48.2,43,30.29,12.0,South,15.0,29.9,N/A,,Partly Cloudy,170,2013-09-17 23:24:00
1:26 PM,69.8,48.2,46,30.29,11.0,SSE,16.1,31.1,N/A,,Partly Cloudy,150,2013-09-17 23:26:00
1:27 PM,69.8,48.2,46,30.29,10.0,SE,19.6,31.1,N/A,,Partly Cloudy,140,2013-09-17 23:27:00
1:49 PM,69.8,41.0,35,30.28,12.0,South,17.3,26.5,N/A,,Partly Cloudy,190,2013-09-17 23:49:00
1:56 PM,70.0,46.2,43,30.28,12.0,SE,13.8,29.9,N/A,,Partly Cloudy,140,2013-09-17 23:56:00
2:16 PM,66.2,51.8,60,30.28,11.0,NNW,13.8,25.3,N/A,,Scattered Clouds,340,2013-09-18 00:16:00
2:18 PM,66.2,51.8,60,30.28,10.0,NNW,12.7,25.3,N/A,,Scattered Clouds,340,2013-09-18 00:18:00
2:21 PM,66.2,50.0,56,30.28,10.0,SE,12.7,25.3,N/A,,Mostly Cloudy,130,2013-09-18 00:21:00
2:22 PM,66.2,48.2,52,30.28,10.0,SSE,12.7,25.3,N/A,,Mostly Cloudy,150,2013-09-18 00:22:00
2:39 PM,68.0,50.0,52,30.27,12.0,South,19.6,33.4,N/A,,Scattered Clouds,180,2013-09-18 00:39:00
2:41 PM,68.0,48.2,49,30.27,12.0,SE,19.6,33.4,N/A,,Partly Cloudy,130,2013-09-18 00:41:00
2:43 PM,68.0,48.2,49,30.27,12.0,SE,12.7,29.9,N/A,,Partly Cloudy,130,2013-09-18 00:43:00
2:46 PM,68.0,46.4,46,30.27,12.0,South,19.6,31.1,N/A,,Partly Cloudy,170,2013-09-18 00:46:00
2:47 PM,68.0,46.4,46,30.28,12.0,South,17.3,31.1,N/A,,Partly Cloudy,190,2013-09-18 00:47:00
2:49 PM,68.0,46.4,46,30.27,12.0,SE,18.4,31.1,N/A,,Partly Cloudy,140,2013-09-18 00:49:00
2:56 PM,70.0,45.7,42,30.27,12.0,SE,19.6,36.8,N/A,,Partly Cloudy,140,2013-09-18 00:56:00
3:37 PM,62.6,51.8,68,30.28,12.0,South,17.3,33.4,N/A,,Clear,190,2013-09-18 01:37:00
3:56 PM,65.1,50.7,60,30.27,12.0,SSE,18.4,27.6,N/A,,Clear,160,2013-09-18 01:56:00
4:56 PM,62.1,50.5,66,30.28,12.0,South,16.1,25.3,N/A,,Clear,180,2013-09-18 02:56:00
4:58 PM,62.6,50.0,63,30.28,12.0,South,11.5,25.3,N/A,,Clear,190,2013-09-18 02:58:00
5:23 PM,60.8,50.0,68,30.28,12.0,SSW,17.3,27.6,N/A,,Partly Cloudy,200,2013-09-18 03:23:00
5:56 PM,59.0,49.6,71,30.29,12.0,SSE,15.0,21.9,N/A,,Scattered Clouds,160,2013-09-18 03:56:00
6:11 PM,59.0,50.0,72,30.29,12.0,South,9.2,19.6,N/A,,Mostly Cloudy,170,2013-09-18 04:11:00
6:17 PM,59.0,48.2,67,30.29,12.0,South,15.0,19.6,N/A,,Scattered Clouds,190,2013-09-18 04:17:00
6:56 PM,57.7,45.3,63,30.29,12.0,ESE,2.3,-,N/A,,Clear,120,2013-09-18 04:56:00
7:56 PM,56.7,48.0,73,30.30,12.0,SE,6.9,19.6,N/A,,Partly Cloudy,140,2013-09-18 05:56:00
8:56 PM,55.8,46.6,71,30.32,12.0,SE,11.5,27.6,N/A,,Clear,140,2013-09-18 06:56:00
9:56 PM,53.4,46.6,78,30.32,1.9,NE,3.5,-,N/A,,Clear,40,2013-09-18 07:56:00
10:06 PM,53.6,46.4,77,30.31,5.0,SE,3.5,-,N/A,,Clear,140,2013-09-18 08:06:00
10:56 PM,51.4,43.3,74,30.31,12.0,North,2.3,-,N/A,,Clear,10,2013-09-18 08:56:00
11:56 PM,50.9,44.1,77,30.31,12.0,SE,5.8,-,N/A,,Clear,130,2013-09-18 09:56:00